星链-6089 (STARLINK-6089 )

导读

STARLINK-6089是由美国于2023年3月29日发射的星链卫星,隶属于SpaceX公司的星链互联网星座项目。星链计划旨在通过构建低轨卫星星座,为全球提供高速低延迟的宽带互联网服务,该卫星入轨后将助力完善星链星座的全球覆盖能力。

基本信息
目录编号:
56096
目录名称:
STARLINK-6089
国际标识:
2023-046D
轨道中心:
EARTH
卫星名称:
星链-6089
卫星全名:
星链-6089 (STARLINK-6089 )
卫星状态:
在轨 (已飞行1255 天)
发射日期:
2023-03-29 UTC
国别 :
美国 (US)
星等 :
--
轨道信息
数据来源 国际轨道数据
星历时间: 2026-09-04T08:03:00+0800
10小时前
查看轨道信息
半长轴: 6861.201km
偏心率: 0.0000637
轨道倾角: 43.001°
近地点辐角 274.716°
升交点赤经 234.414°
平近点角 85.361°
近地点: 482.626km
远地点: 483.502km
周期: 94.267分钟
每日圈数: 15.275751
详细信息
固有亮度:
5
最大亮度:
2.5
卫星平台:
Starlink v1.5
覆盖范围:
全球
运营商:
太空探索技术公司
运营商所在国:
美国
制造商(研发单位):
太空探索技术公司
制造商所在国:
美国
使用方式:
暂无
卫星简介
星链(Starlink)计划是由太空探索技术公司(SpaceX)提出的一个巨型低轨卫星互联网星座项目,计划在2019年至2024年间在太空搭建由约1.2万颗卫星组成的“星链”网络,其中1584颗将部署在地球上空550千米处的近地轨道,并从2020年开始工作。该卫星仍在工作。
2D轨道图
3D轨道图
轨道高度分析图
轨道倾角分析图
轨道综合分析图
查看轨道综合分析图
交会数据列表
事件ID 空间交会对象 最接近时刻(TCA) 交会距离 交会风险概率(CRP) 交会风险指数(CRI) 操作
CDM_260906-045405-609605-852321
2026-09-06T
04:54:57+0000
0.314 km
远距离
2.933557E-4 高风险 0.84
CDM_260905-092505-609606-395921
2026-09-05T
09:25:15+0000
0.314 km
远距离
1.667689E-4 高风险 0.79
CDM_260905-070405-609606-395921
2026-09-05T
07:04:01+0000
0.389 km
远距离
1.029309E-4 高风险 0.75
CDM_260829-072004-282705-609623
OBJECT C (42827)
2026-08-29T
07:20:09+0000
0.735 km
远距离
7.112395E-5 中风险 0.72
CDM_260905-052803-945105-609621
SWARM B (39451)
2026-09-05T
05:28:55+0000
1.512 km
极远距离
5.226102E-6 低风险 0.49
CDM_260906-032005-609605-852321
2026-09-06T
03:20:48+0000
1.309 km
极远距离
5.084848E-6 低风险 0.49
CDM_260903-094405-609605-912223
2026-09-03T
09:44:29+0000
1.954 km
极远距离
2.929646E-6 低风险 0.44
CDM_260906-062905-609605-852321
2026-09-06T
06:29:06+0000
1.655 km
极远距离
2.434769E-6 低风险 0.43
CDM_260903-092705-609605-706121
2026-09-03T
09:27:21+0000
1.799 km
极远距离
1.720596E-6 低风险 0.4
CDM_260904-122005-609606-455822
QUICK3 (64558)
2026-09-04T
12:20:17+0000
2.899 km
极远距离
1.322065E-6 低风险 0.37